Погода в Неве Зоар

Израиль     31°09′10″N   35°21′55″E
темп.,
°C
ветер,
м/с
пор.,
м/с
влажн.,
%
обл.,
%
осадки,
мм/ч
давл.,
гПа
погр.,
м
22 октября, пт
пт2200:00+21зсз22700 0.0 101948
03:00+20сз11720 0.0 101811
06:00+19зсз11751 0.0 101811
09:00+21св11640 0.0 1019416
12:00+25всв22450 0.0 10191153
15:00+27всв23392 0.0 10171469
18:00+25ссз56490 0.0 1017410
21:00+22сз34600 0.0 1019163
23 октября, сб
сб2300:00+20зсз22660 0.0 101962
03:00+19зсз22710 0.0 101836
06:00+18сз22720 0.0 101814
09:00+21с23550 0.0 1019626
12:00+24св23410 0.0 10191494
15:00+26с24350 0.0 10171676
18:00+23сз67460 0.0 1018633
21:00+20сз34590 0.0 1019148
24 октября, вс
вс2400:00+19зсз22620 0.0 101921
03:00+18зсз11630 0.0 101911
06:00+17сз11610 0.0 101811
09:00+20ссв22450 0.0 1019384
12:00+23св32380 0.0 1018889
15:00+25св22310 0.0 10151101
18:00+23сз12400 0.0 101556
21:00+20зсз22570 0.0 101650
25 октября, пн
пн2500:00+19зсз11600 0.0 101612
03:00+18з11670 0.0 101611
06:00+17з01730 0.0 101611
09:00+19ссз00630 0.0 1017363
12:00+23в22470 0.0 10161021
15:00+25всв22380 0.0 1014971
18:00+23св11460 0.0 101539
21:00+21зсз22540 0.0 101626
26 октября, вт
вт2600:00+19зсз00600 0.0 101611
03:00+18зюз12630 0.0 101611
06:00+17зсз11660 0.0 101611
09:00+20с11570 0.0 1017245
12:00+24св33340 0.0 1015789
15:00+26всв23250 0.0 10131141
18:00+23зсз01340 0.0 101322
21:00+21зсз22480 0.0 101415